timestamp,wind_dir_avg,wind_spd_avg,wind_spd_max_dir,wind_spd_gust,battery_voltage,lat,long
2022-06-26 00:04:01+00:00,216.0,9.75,227.0,12.79,12.49,47.59359,-54.27349
2022-06-26 00:14:00+00:00,222.0,10.37,229.0,12.28,12.41,47.59359,-54.27349
2022-06-26 00:24:00+00:00,216.0,8.86,229.0,11.48,12.41,47.59359,-54.27349
2022-06-26 00:34:00+00:00,220.0,10.43,230.0,12.31,12.41,47.59359,-54.27349
2022-06-26 00:44:00+00:00,223.0,13.32,223.0,14.44,12.41,47.59359,-54.27349
2022-06-26 00:54:00+00:00,232.0,10.9,238.0,12.66,12.41,47.59359,-54.27349
2022-06-26 01:04:00+00:00,239.0,10.51,236.0,11.55,12.41,47.59359,-54.27349
2022-06-26 01:14:01+00:00,239.0,9.57,240.0,10.25,12.41,47.59359,-54.27349
2022-06-26 01:24:01+00:00,315.0,0.01,217.0,0.0,12.41,47.59359,-54.27349
2022-06-26 01:34:01+00:00,234.0,8.98,233.0,10.57,12.41,47.59359,-54.27349
2022-06-26 01:44:01+00:00,239.0,9.99,235.0,10.34,12.41,47.59359,-54.27349
2022-06-26 01:54:01+00:00,219.0,5.89,237.0,8.39,12.41,47.59359,-54.27349
2022-06-26 02:04:01+00:00,169.0,4.04,194.0,4.48,12.41,47.59359,-54.27349
2022-06-26 02:14:00+00:00,194.0,6.35,208.0,7.29,12.41,47.59359,-54.27349
2022-06-26 02:24:00+00:00,210.0,6.53,213.0,6.94,12.41,47.59359,-54.27349
2022-06-26 02:34:00+00:00,209.0,6.72,217.0,7.76,12.41,47.59359,-54.27349
2022-06-26 02:44:00+00:00,217.0,6.65,232.0,9.25,12.41,47.59359,-54.27349
2022-06-26 02:54:00+00:00,218.0,5.84,218.0,6.17,12.41,47.59359,-54.27349
2022-06-26 03:04:00+00:00,221.0,6.5,236.0,9.95,12.41,47.59359,-54.27349
2022-06-26 03:14:00+00:00,224.0,7.09,238.0,10.5,12.17,47.59359,-54.27349
2022-06-26 03:24:00+00:00,215.0,6.2,212.0,7.08,12.17,47.59359,-54.27349
2022-06-26 03:34:00+00:00,209.0,7.48,212.0,8.54,12.17,47.59359,-54.27349
2022-06-26 03:44:00+00:00,232.0,7.87,238.0,10.3,12.17,47.59359,-54.27349
2022-06-26 03:54:00+00:00,223.0,5.41,224.0,5.98,12.17,47.59359,-54.27349
2022-06-26 04:04:00+00:00,219.0,5.72,227.0,6.78,12.17,47.59359,-54.27349
2022-06-26 04:14:01+00:00,158.0,3.74,162.0,4.24,12.17,47.59359,-54.27349
2022-06-26 04:24:01+00:00,212.0,5.91,213.0,6.65,12.17,47.59359,-54.27349
2022-06-26 04:34:01+00:00,214.0,6.12,226.0,7.2,12.17,47.59359,-54.27349
2022-06-26 04:44:01+00:00,209.0,5.8,225.0,8.06,12.17,47.59359,-54.27349
2022-06-26 04:54:01+00:00,207.0,6.86,209.0,7.46,12.17,47.59359,-54.27349
2022-06-26 05:04:01+00:00,164.0,3.61,219.0,5.15,12.17,47.59359,-54.27349
2022-06-26 05:14:00+00:00,164.0,3.92,167.0,4.33,12.17,47.59359,-54.27349
2022-06-26 05:24:00+00:00,161.0,5.18,161.0,5.51,12.17,47.59359,-54.27349
2022-06-26 05:34:00+00:00,176.0,6.01,168.0,6.56,12.17,47.59359,-54.27349
2022-06-26 05:44:00+00:00,174.0,4.52,153.0,5.28,12.17,47.59359,-54.27349
2022-06-26 05:54:00+00:00,157.0,6.47,158.0,7.37,12.17,47.59359,-54.27349
2022-06-26 06:04:00+00:00,170.0,6.33,172.0,7.19,12.17,47.59359,-54.27349
2022-06-26 06:14:00+00:00,198.0,6.39,209.0,7.12,12.17,47.59359,-54.27349
2022-06-26 06:24:00+00:00,167.0,6.11,170.0,6.75,12.17,47.59359,-54.27349
2022-06-26 06:34:00+00:00,169.0,5.47,170.0,5.92,12.17,47.59359,-54.27349
2022-06-26 06:44:00+00:00,163.0,5.09,169.0,5.59,12.17,47.59359,-54.27349
2022-06-26 06:54:00+00:00,168.0,6.48,170.0,6.96,12.17,47.59359,-54.27349
2022-06-26 07:04:00+00:00,182.0,4.8,172.0,5.24,12.17,47.59359,-54.27349
2022-06-26 07:14:00+00:00,315.0,0.01,215.0,0.0,12.09,47.59359,-54.27349
2022-06-26 07:24:00+00:00,213.0,7.51,222.0,8.8,12.09,47.59359,-54.27349
2022-06-26 07:34:00+00:00,213.0,6.67,213.0,7.08,12.09,47.59359,-54.27349
2022-06-26 07:44:00+00:00,235.0,10.59,233.0,10.9,12.09,47.59359,-54.27349
2022-06-26 07:54:00+00:00,232.0,7.85,238.0,10.0,12.09,47.59359,-54.27349
2022-06-26 08:04:00+00:00,241.0,9.04,245.0,9.87,12.09,47.59359,-54.27349
2022-06-26 08:14:00+00:00,223.0,5.21,235.0,5.98,12.09,47.59359,-54.27349
2022-06-26 08:24:00+00:00,162.0,4.96,163.0,5.31,12.09,47.59359,-54.27349
2022-06-26 08:34:00+00:00,154.0,4.67,162.0,5.09,12.09,47.59359,-54.27349
2022-06-26 08:44:00+00:00,162.0,5.11,163.0,5.64,12.09,47.59359,-54.27349
2022-06-26 08:54:00+00:00,172.0,4.95,192.0,5.42,12.09,47.59359,-54.27349
2022-06-26 09:04:00+00:00,166.0,3.81,168.0,4.01,12.09,47.59359,-54.27349
2022-06-26 09:14:00+00:00,174.0,3.6,196.0,4.18,12.33,47.59359,-54.27349
2022-06-26 09:24:00+00:00,160.0,3.25,164.0,3.57,12.33,47.59359,-54.27349
2022-06-26 09:34:00+00:00,159.0,3.94,153.0,4.24,12.33,47.59359,-54.27349
2022-06-26 09:44:00+00:00,148.0,2.79,145.0,2.97,12.33,47.59359,-54.27349
2022-06-26 09:54:00+00:00,166.0,3.97,149.0,4.57,12.33,47.59359,-54.27349
2022-06-26 10:04:00+00:00,158.0,4.25,156.0,4.71,12.33,47.59359,-54.27349
2022-06-26 10:14:00+00:00,157.0,3.35,151.0,3.78,12.89,47.59359,-54.27349
2022-06-26 10:24:00+00:00,150.0,3.81,152.0,4.1,12.89,47.59359,-54.27349
2022-06-26 10:34:00+00:00,154.0,3.99,147.0,4.64,12.89,47.59359,-54.27349
2022-06-26 10:44:00+00:00,144.0,4.05,144.0,4.39,12.89,47.59359,-54.27349
2022-06-26 10:54:00+00:00,185.0,2.68,182.0,3.05,12.89,47.59359,-54.27349
2022-06-26 11:04:00+00:00,153.0,3.36,148.0,3.7,12.89,47.59359,-54.27349
2022-06-26 11:14:00+00:00,183.0,3.3,201.0,3.92,13.44,47.59359,-54.27349
2022-06-26 11:24:00+00:00,179.0,4.14,158.0,4.57,13.44,47.59359,-54.27349
2022-06-26 11:34:00+00:00,203.0,5.21,206.0,5.62,13.44,47.59359,-54.27349
2022-06-26 11:44:00+00:00,204.0,5.28,200.0,5.85,13.44,47.59359,-54.27349
2022-06-26 11:54:00+00:00,201.0,5.6,199.0,5.9,13.44,47.59359,-54.27349
2022-06-26 12:04:00+00:00,199.0,5.67,199.0,5.95,13.44,47.59359,-54.27349
2022-06-26 12:14:00+00:00,199.0,5.66,201.0,5.75,13.84,47.59359,-54.27349
2022-06-26 12:24:00+00:00,195.0,6.2,197.0,6.86,13.84,47.59359,-54.27349
2022-06-26 12:34:00+00:00,200.0,5.17,200.0,5.69,13.84,47.59359,-54.27349
2022-06-26 12:44:00+00:00,315.0,0.01,201.0,0.0,13.84,47.59359,-54.27349
2022-06-26 12:54:00+00:00,204.0,5.4,205.0,5.54,13.84,47.59359,-54.27349
2022-06-26 13:04:00+00:00,197.0,3.99,201.0,4.55,13.84,47.59359,-54.27349
2022-06-26 13:14:00+00:00,204.0,4.9,205.0,5.67,13.68,47.59359,-54.27349
2022-06-26 13:24:00+00:00,202.0,4.61,205.0,5.11,13.68,47.59359,-54.27349
2022-06-26 13:34:00+00:00,196.0,6.37,196.0,6.76,13.68,47.59359,-54.27349
2022-06-26 13:44:00+00:00,200.0,6.79,199.0,7.26,13.68,47.59359,-54.27349
2022-06-26 13:54:00+00:00,202.0,6.18,203.0,6.34,13.68,47.59359,-54.27349
2022-06-26 14:04:00+00:00,200.0,5.59,199.0,6.02,13.68,47.59359,-54.27349
2022-06-26 14:14:01+00:00,200.0,6.78,196.0,8.1,13.84,47.59359,-54.27349
2022-06-26 14:24:01+00:00,202.0,6.21,200.0,6.48,13.84,47.59359,-54.27349
2022-06-26 14:34:01+00:00,201.0,7.0,202.0,7.28,13.84,47.59359,-54.27349
2022-06-26 14:44:01+00:00,197.0,6.41,197.0,7.03,13.84,47.59359,-54.27349
2022-06-26 14:54:01+00:00,197.0,6.8,200.0,7.19,13.84,47.59359,-54.27349
2022-06-26 15:04:01+00:00,180.0,5.37,181.0,6.03,13.84,47.59359,-54.27349
2022-06-26 15:14:00+00:00,193.0,5.99,196.0,6.59,14.16,47.59359,-54.27349
2022-06-26 15:24:00+00:00,196.0,6.7,198.0,7.02,14.16,47.59359,-54.27349
2022-06-26 15:34:00+00:00,197.0,7.6,199.0,8.07,14.16,47.59359,-54.27349
2022-06-26 15:44:00+00:00,200.0,6.83,202.0,7.23,14.16,47.59359,-54.27349
2022-06-26 15:54:00+00:00,201.0,8.43,202.0,8.44,14.16,47.59359,-54.27349
2022-06-26 16:04:00+00:00,315.0,0.01,205.0,0.0,14.16,47.59359,-54.27349
2022-06-26 16:14:01+00:00,201.0,5.5,201.0,5.97,14.24,47.59359,-54.27349
2022-06-26 16:24:01+00:00,206.0,5.34,210.0,5.68,14.24,47.59359,-54.27349
2022-06-26 16:34:01+00:00,207.0,4.83,209.0,5.05,14.24,47.59359,-54.27349
2022-06-26 16:44:01+00:00,209.0,6.17,211.0,6.41,14.24,47.59359,-54.27349
2022-06-26 16:54:01+00:00,205.0,7.05,206.0,7.24,14.24,47.59359,-54.27349
2022-06-26 17:04:01+00:00,209.0,5.68,210.0,5.99,14.24,47.59359,-54.27349
2022-06-26 17:14:00+00:00,212.0,5.82,213.0,6.15,14.24,47.59359,-54.27349
2022-06-26 17:24:00+00:00,213.0,5.11,213.0,5.46,14.24,47.59359,-54.27349
2022-06-26 17:34:00+00:00,211.0,4.88,213.0,5.47,14.24,47.59359,-54.27349
2022-06-26 17:44:00+00:00,202.0,6.14,202.0,6.71,14.24,47.59359,-54.27349
2022-06-26 17:54:00+00:00,187.0,5.72,191.0,6.13,14.24,47.59359,-54.27349
2022-06-26 18:04:00+00:00,198.0,6.97,199.0,7.34,14.24,47.59359,-54.27349
2022-06-26 18:14:01+00:00,200.0,5.1,199.0,5.73,13.68,47.59359,-54.27349
2022-06-26 18:24:01+00:00,204.0,5.46,202.0,5.6,13.68,47.59359,-54.27349
2022-06-26 18:34:01+00:00,197.0,6.36,197.0,6.82,13.68,47.59359,-54.27349
2022-06-26 18:44:01+00:00,194.0,6.44,195.0,6.74,13.68,47.59359,-54.27349
2022-06-26 18:54:01+00:00,197.0,6.53,197.0,7.15,13.68,47.59359,-54.27349
2022-06-26 19:04:01+00:00,197.0,6.8,197.0,7.63,13.68,47.59359,-54.27349
2022-06-26 19:14:00+00:00,197.0,6.97,196.0,7.84,13.68,47.59359,-54.27349
2022-06-26 19:24:00+00:00,315.0,0.01,198.0,0.0,13.68,47.59359,-54.27349
2022-06-26 19:34:00+00:00,315.0,0.01,198.0,0.0,13.68,47.59359,-54.27349
2022-06-26 19:44:00+00:00,195.0,6.72,194.0,7.45,13.68,47.59359,-54.27349
2022-06-26 19:54:00+00:00,315.0,0.01,192.0,0.0,13.68,47.59359,-54.27349
2022-06-26 20:04:00+00:00,315.0,0.01,192.0,0.0,13.68,47.59359,-54.27349
2022-06-26 20:14:01+00:00,198.0,8.09,199.0,8.55,13.68,47.59359,-54.27349
2022-06-26 20:24:01+00:00,204.0,9.04,205.0,9.19,13.68,47.59359,-54.27349
2022-06-26 20:34:01+00:00,203.0,8.98,202.0,9.9,13.68,47.59359,-54.27349
2022-06-26 20:44:01+00:00,205.0,8.93,205.0,10.35,13.68,47.59359,-54.27349
2022-06-26 20:54:01+00:00,206.0,8.62,210.0,9.67,13.68,47.59359,-54.27349
2022-06-26 21:04:01+00:00,205.0,8.14,205.0,8.97,13.68,47.59359,-54.27349
2022-06-26 21:14:00+00:00,206.0,7.85,207.0,8.51,13.68,47.59359,-54.27349
2022-06-26 21:24:00+00:00,208.0,7.76,211.0,8.42,13.68,47.59359,-54.27349
2022-06-26 21:34:00+00:00,211.0,6.76,210.0,7.66,13.68,47.59359,-54.27349
2022-06-26 21:44:00+00:00,207.0,7.18,208.0,7.83,13.68,47.59359,-54.27349
2022-06-26 21:54:00+00:00,209.0,7.07,205.0,7.65,13.68,47.59359,-54.27349
2022-06-26 22:04:00+00:00,200.0,7.2,204.0,7.96,13.68,47.59359,-54.27349
2022-06-26 22:14:01+00:00,183.0,6.05,205.0,7.29,13.53,47.59359,-54.27349
2022-06-26 22:24:01+00:00,201.0,6.72,208.0,7.7,13.53,47.59359,-54.27349
2022-06-26 22:34:01+00:00,188.0,6.2,204.0,7.62,13.53,47.59359,-54.27349
2022-06-26 22:44:01+00:00,193.0,4.85,210.0,6.05,13.53,47.59359,-54.27349
2022-06-26 22:54:01+00:00,180.0,5.27,183.0,6.59,13.53,47.59359,-54.27349
2022-06-26 23:04:01+00:00,177.0,5.96,201.0,6.89,13.53,47.59359,-54.27349
2022-06-26 23:14:00+00:00,198.0,6.86,206.0,8.02,13.13,47.59359,-54.27349
2022-06-26 23:24:00+00:00,208.0,6.96,206.0,7.77,13.13,47.59359,-54.27349
2022-06-26 23:34:00+00:00,205.0,4.3,215.0,5.33,13.13,47.59359,-54.27349
2022-06-26 23:44:00+00:00,216.0,6.33,226.0,7.69,13.13,47.59359,-54.27349
2022-06-26 23:54:00+00:00,217.0,5.59,212.0,6.88,13.13,47.59359,-54.27349
